Regional Weather Roundup
Issued by NWS Cleveland, OH

Home | Current Version | Previous Version | Graphics & Text | Print | Product List | Glossary On
Versions: 1 2 3 4 5 6 7 8 9 10 11 12 13 14 15 16 17 18 19 20 21 22 23 24 25 26 27 28 29 30 31 32 33 34 35 36 37 38 39 40 41 42 43 44 45 46 47 48 49 50
725
ASUS41 KCLE 301410
RWRCLE
OHIO REGIONAL WEATHER ROUNDUP
NATIONAL WEATHER SERVICE CLEVELAND, OH
1000 AM EDT THU MAR 30 2017

NOTE: "FAIR" INDICATES FEW OR NO CLOUDS BELOW 12,000 FEET WITH NO
SIGNIFICANT WEATHER AND/OR OBSTRUCTIONS TO VISIBILITY.

OHZ001>008-015>018-024>027-034-035-043-044-301500-
   NORTHWEST OHIO

CITY           SKY/WX    TMP DP  RH WIND       PRES   REMARKS
DEFIANCE       LGT RAIN  40  36  86 NE12G24   29.94R
FINDLAY        CLOUDY    44  38  79 NE12G23   29.88F
TOLEDO EXPRESS CLOUDY    39  37  92 NE15      29.95F
TOLEDO EXEC    CLOUDY    40  38  93 NE14G22   29.96F
LIMA           CLOUDY    48  40  73 NE10      29.85F
$$

OHZ009>014-019>023-028>033-038-089-301500-
   NORTHEAST OHIO

CITY           SKY/WX    TMP DP  RH WIND       PRES   REMARKS
CLE-HOPKINS    TSTM      46  33  60 E16       29.98S
CLE-LAKEFRONT  LGT RAIN  46  34  62 E8G18     29.97R
CUY CO. ARPT   LGT RAIN  46  34  61 E12       29.99R
LORAIN-ELYRIA  LGT RAIN  44  33  65 E12       29.94S
ASHTABULA      LGT RAIN  41  35  79 E9        30.04F
AKRON-CANTON   CLOUDY    47  31  53 SE20G28   29.94F
WOOSTER        CLOUDY    47  33  58 SE20G28   29.90F
MANSFIELD      CLOUDY    46  37  71 SE15      29.87F
YOUNGSTOWN     CLOUDY    44  31  60 E21G30    29.99F
$$

OHZ042-051>053-060>062-070>072-077>081-301500-
  SOUTHWEST OHIO

CITY           SKY/WX    TMP DP  RH WIND       PRES   REMARKS
CINC-COVINGTON CLOUDY    58  50  75 SE7       29.81F
CINC-LUNKEN    CLOUDY    58  50  75 CALM      29.83F
HAMILTON       PTSUNNY   57  47  69 E5        29.83F
DAYTON         CLOUDY    53  39  59 SE16      29.82F
WRIGHT-PAT AFB CLOUDY    53  38  57 SE9       29.83F
DAYTON GENERAL PTSUNNY   55  43  63 SE10      29.82F
WILMINGTON     CLOUDY    52  45  77 SE9       29.83F
$$

OHZ036-037-039>041-045>050-054>059-063>069-073>076-082>088-301500-
  CENTRAL AND SOUTHEAST OHIO

CITY           SKY/WX    TMP DP  RH WIND       PRES   REMARKS
COLUMBUS       CLOUDY    53  37  54 SE15      29.87F
OSU AIRPORT    PTSUNNY   52  38  58 SE16      29.86F
BOLTON FIELD   PTSUNNY   52  37  58 SE8       29.87F
RICKENBACK AFB CLOUDY    52  40  62 SE9       29.87F
NEWARK         CLOUDY    52  36  54 SE8       29.89F
MARION         CLOUDY    50  36  58 SE17G25   29.86F
LANCASTER      PTSUNNY   53  40  61 SE14      29.88F
ZANESVILLE     CLOUDY    51  35  54 SE9       29.93F
NEW PHILLY     NOT AVBL
$$




USA.gov is the U.S. government's official web portal to all federal, state and local government web resources and services.